Location: Mainz-Finthen
(49.9906°N, 8.1713°E)
Time: 06:50:39
(UTC+00:00)

N. Korean satellite - Pass Details

Date: 02 December 2022
Orbit: 407 x 442 km, 97.3° (Epoch: 04 February)

Event Time Altitude Azimuth Distance (km) Brightness Sun altitude
Rises 16:51:02 0° 206° (SSW) 2,448 10.9 -12.7°
Reaches altitude 10° 16:53:38 10° 229° (SW) 1,595 10.3 -13.1°
Maximum altitude 16:55:51 16° 269° (W) 1,278 9.8 -13.5°
Drops below altitude 10° 16:58:06 10° 310° (NW) 1,623 9.7 -13.8°
Sets 17:00:47 0° 332° (NNW) 2,515 10.3 -14.2°
